Flag for France Weather past 2 weeks in Rodez, France

54 °F

Mostly cloudy.

Feels Like: 51 °F
Forecast: 34 / 50 °F
Wind: 8 mph from West

Location: Rodez Airport

Current Time: Oct 13, 2015 at 3:44:39 PM

Latest Report: Oct 13, 2015 at 3:00 PM

Visibility: 5 mi

Pressure: 29.98 "Hg (27.76 "Hg at 642m altitude)

Humidity: 94%

Dew point: 52 °F

Location of RodezLocation

Historic Weather in Rodez — Graph


Rodez temperature yesterday

Maximum temperature yesterday: 68 °F (at 2:30 PM)
Minimum temperature yesterday: 52 °F (at 2:00 AM)
Average temperature yesterday: 58 °F

Past Weeks' High & Low Weather Summary

High70 °F (Oct 5, 5:30 PM)100% (Oct 1, 7:00 AM)30.27 "Hg (Oct 1, 7:00 AM)
Low34 °F (Oct 9, 8:00 AM)40% (Sep 30, 4:30 PM)29.74 "Hg (Oct 6, 6:00 AM)
Average55 °F78%30.01 "Hg
* Reported Sep 28 2:00 PM — Oct 13 2:30 PM, Rodez, Weather by CustomWeather, © 2015

Note: Actual official high and low records may vary slightly from our data, if they occured in-between our weather recording intervals... More about our weather records


Rodez weather history for previous 24 hours

Time TempWeatherWind HumidityBarometerVisibility
2:30 PM
Tue, Oct 13
54 °FFog.9 mph94%29.95 "Hg2 mi
2:00 PM54 °FLight rain. Fog.9 mph94%29.98 "Hg1 mi
1:30 PM54 °FLow clouds.9 mph94%29.98 "HgN/A
1:00 PM55 °FMostly cloudy.8 mph88%29.98 "HgN/A
12:30 PM54 °FLow clouds.8 mph94%29.98 "HgN/A
12:00 PM55 °FLow clouds.6 mph88%29.98 "HgN/A
11:30 AM55 °FLow clouds.6 mph88%29.98 "HgN/A
11:00 AM54 °FLow clouds.5 mph94%29.98 "HgN/A
10:30 AM54 °FLight rain. Mostly cloudy.5 mph94%29.98 "HgN/A
10:00 AM54 °FMostly cloudy.5 mph94%29.98 "HgN/A
9:30 AM54 °FMore clouds than sun.2 mph94%29.95 "HgN/A
9:00 AM54 °FMostly cloudy.3 mph94%29.95 "HgN/A
8:30 AM54 °FMostly cloudy.3 mph94%29.95 "HgN/A
8:00 AM54 °FLow clouds.3 mph94%29.95 "Hg5 mi
7:30 AM54 °FMostly cloudy.3 mph94%29.95 "Hg4 mi
7:00 AM54 °FFog.3 mph100%29.95 "Hg3 mi
6:30 AM54 °FLow clouds.2 mph94%29.92 "Hg4 mi
6:00 AM52 °FLow clouds.No wind100%29.92 "Hg4 mi
5:30 AM52 °FCool.No wind94%29.92 "Hg4 mi
5:00 AM52 °FCool.1 mph100%29.92 "Hg0 mi
4:30 AM52 °FCool.No wind100%29.92 "Hg0 mi
4:00 AM50 °FCool.No wind94%29.92 "Hg0 mi
3:30 AM50 °FCool.No wind100%29.92 "Hg0 mi
3:00 AM48 °FCool.2 mph94%29.95 "Hg0 mi
2:30 AM48 °FCool.2 mph94%29.95 "Hg0 mi
2:00 AM50 °FCool.1 mph94%29.92 "Hg0 mi
1:30 AM52 °FCool.No wind94%29.92 "Hg0 mi
1:00 AM54 °FCool.No wind94%29.92 "Hg0 mi
12:30 AM54 °FCool.No wind94%29.92 "Hg0 mi
12:00 AM55 °FCool.1 mph88%29.92 "Hg0 mi
11:30 PM
Mon, Oct 12
55 °FCool.No wind88%29.92 "Hg0 mi
11:00 PM55 °FCool.1 mph88%29.92 "Hg0 mi
10:30 PM55 °FCool.No wind88%29.92 "Hg0 mi
10:00 PM55 °FCool.2 mph94%29.92 "Hg0 mi
9:30 PM57 °FClear.1 mph88%29.89 "Hg10 mi
9:00 PM57 °FClear.3 mph88%29.89 "Hg10 mi
8:30 PM57 °FClear.5 mph88%29.89 "Hg10 mi
8:00 PM59 °FSunny.3 mph82%29.89 "Hg10 mi
7:30 PM61 °FSunny.2 mph72%29.89 "Hg10 mi
7:00 PM61 °FSunny.3 mph72%29.89 "Hg10 mi
6:30 PM61 °FSunny.3 mph68%29.89 "Hg10 mi
6:00 PM63 °FSunny.3 mph64%29.89 "Hg10 mi
5:30 PM63 °FSunny.6 mph68%29.89 "Hg10 mi
5:00 PM63 °FSunny.5 mph64%29.86 "Hg10 mi
4:30 PM64 °FSunny.3 mph60%29.86 "Hg10 mi
4:00 PM64 °FPassing clouds.3 mph60%29.86 "HgN/A
3:30 PM64 °FPassing clouds.5 mph60%29.86 "HgN/A
3:00 PM66 °FPassing clouds.7 mph60%29.86 "HgN/A
Weather by CustomWeather, © 2015

See weather overviewHow to use our weather pages